Location: Eaton
(41.3139°N, 82.0207°W)
Time: 06:40:16
(UTC+00:00)

Cosmos 773 Rocket - Pass Details

Date: 17 June 2021
Orbit: 746 x 776 km, 74.1° (Epoch: 27 July)

Event Time Altitude Azimuth Distance (km) Brightness Sun altitude
Exits shadow 09:17:38 - 193° (SSW) 3,205 6.7 -6.4°
Reaches altitude 10° 09:19:55 10° 192° (SSW) 2,316 6.0 -6.1°
Maximum altitude 09:25:11 76° 107° (ESE) 802 4.3 -5.3°
Drops below altitude 10° 09:30:28 10° 23° (NNE) 2,328 7.6 -4.5°
Sets 09:32:51 0° 22° (NNE) 3,256 8.4 -4.2°
